Flag for Germany Weather past 2 weeks in Magdeburg, Saxony-Anhalt, Germany

Now
61 °F

Light rain. Overcast.


Feels Like: 61 °F
Forecast: 59 / 72 °F
Wind: 1 mph from Southeast

Location: Magdeburg

Current Time: Sep 19, 2014 at 6:27:59 AM

Latest Report: Sep 19, 2014 at 6:00 AM


Visibility: 2 mi

Pressure: 29.92 "Hg

Humidity: 96%

Dew point: 60 °F

Location of MagdeburgLocation

Historic Weather in Magdeburg — Graph

°F

Magdeburg temperature yesterday

Maximum temperature yesterday: 76 °F (at 5:00 PM)
Minimum temperature yesterday: 53 °F (at 7:00 AM)
Average temperature yesterday: 64 °F

Past Weeks' High & Low Weather Summary

 TemperatureHumidityPressure
High80 °F (Sep 5, 4:00 PM)98% (Sep 6, 8:00 AM)30.22 "Hg (Sep 6, 8:00 AM)
Low52 °F (Sep 9, 4:00 AM)43% (Sep 17, 6:00 PM)29.85 "Hg (Sep 6, 6:00 PM)
Average63 °F82%30.04 "Hg
* Reported Sep 4 6:00 AM — Sep 19 5:00 AM, Magdeburg, Weather by CustomWeather, © 2014

Note: Actual official high and low records may vary slightly from our data, if they occured in-between our weather recording intervals... More about our weather records

Advertising

Magdeburg weather history for previous 24 hours

 ConditionsComfort  
Time TempWeatherWind HumidityBarometerVisibility
5:00 AM
Sep 19
61 °FLight freezing rain. Overcast.1 mph93%29.91 "Hg2 mi
4:00 AM61 °FLight rain. Overcast.1 mph94%29.92 "Hg2 mi
3:00 AM62 °FRain. Overcast.1 mph90%29.93 "Hg4 mi
2:00 AM62 °FOvercast.1 mph87%29.93 "Hg6 mi
1:00 AM62 °FOvercast.1 mph88%29.93 "Hg6 mi
12:00 AM63 °FOvercast.1 mph86%29.93 "Hg7 mi
11:00 PM
Sep 18
63 °FOvercast.1 mph86%29.93 "Hg6 mi
10:00 PM65 °FOvercast.2 mph79%29.93 "Hg9 mi
9:00 PM67 °FOvercast.1 mph76%29.93 "Hg7 mi
8:00 PM67 °FOvercast.1 mph74%29.93 "Hg11 mi
7:00 PM71 °FScattered clouds.1 mph65%29.92 "Hg13 mi
6:00 PM74 °FScattered clouds.2 mph55%29.92 "Hg15 mi
5:00 PM76 °FScattered clouds.2 mph51%29.91 "Hg19 mi
4:00 PM75 °FPassing clouds.3 mph55%29.91 "Hg19 mi
3:00 PM74 °FPassing clouds.2 mph58%29.92 "Hg19 mi
2:00 PM73 °FPassing clouds.3 mph57%29.92 "Hg16 mi
1:00 PM71 °FPassing clouds.2 mph60%29.93 "Hg16 mi
12:00 PM68 °FPassing clouds.3 mph65%29.94 "Hg14 mi
11:00 AM65 °FSunny.3 mph70%29.95 "Hg12 mi
10:00 AM63 °FSunny.2 mph77%29.95 "Hg9 mi
9:00 AM60 °FSunny.2 mph82%29.95 "Hg7 mi
8:00 AM56 °FFog.1 mph97%29.95 "Hg2 mi
7:00 AM53 °FFog.1 mph97%29.95 "Hg2 mi
6:00 AM54 °FFog.1 mph96%29.95 "Hg3 mi
Weather by CustomWeather, © 2014

See weather overviewHow to use our weather pages